Regional Weather Roundup
Issued by NWS

Home | Current Version | Previous Version | Graphics & Text | Print | Product List | Glossary On
Versions: 1 2 3 4 5 6 7 8 9 10 11 12 13 14 15 16 17 18 19 20 21 22 23 24 25 26 27 28 29 30 31 32 33 34 35 36 37 38 39 40 41 42 43 44 45 46 47 48 49 50
000
ASUS43 KLMK 161210
RWRKY
KENTUCKY REGIONAL WEATHER ROUNDUP
NATIONAL WEATHER SERVICE LOUISVILLE KY
700 AM EST SAT DEC 16 2017

NOTE "FAIR" INDICATES FEW OR NO CLOUDS BELOW 12,000 FEET
WITH NO SIGNIFICANT WEATHER AND/OR OBSTRUCTIONS TO VISIBILITY.

KYZ001>023-026-027-061>063-070>075-161300-
WESTERN AND SOUTH CENTRAL KENTUCKY

CITY           SKY/WX    TMP DP  RH WIND       PRES   REMARKS
PADUCAH        CLEAR     33  25  72 S6        30.13R WCI  28
HENDERSON      PTCLDY    33  27  78 S10       30.12R WCI  25
OWENSBORO      PTCLDY    31  27  85 S8        30.14R WCI  23
HOPKINSVILLE   CLEAR     32  25  74 S10       30.17R WCI  24
BOWLING GREEN  CLEAR     30  25  81 S6        30.19R WCI  24
GLASGOW        CLEAR     30  24  81 S3        30.18S
$$

KYZ024-025-028>034-038-045-046-053-161300-
NORTH CENTRAL KENTUCKY

CITY           SKY/WX    TMP DP  RH WIND       PRES   REMARKS
LOUISVILLE/SDF CLEAR     35  25  66 SW8       30.13R WCI  29
LOUISVILLE/LOU CLEAR     32  26  78 S6        30.14R WCI  26
FORT KNOX      CLEAR     30  24  77 S6        30.12R WCI  24
$$

KYZ035>037-039>044-047>052-055>060-089>105-161300-
NORTHEAST KENTUCKY

CITY           SKY/WX    TMP DP  RH WIND       PRES   REMARKS
LEXINGTON      CLEAR     31  23  72 S12       30.14R WCI  22
COVINGTON      PTCLDY    32  25  75 SW9       30.07S WCI  24
FRANKFORT      CLEAR     32  22  66 S12       30.12R WCI  23
$$

KYZ054-064>069-076>088-106>120-161300-
SOUTHEAST KENTUCKY

CITY           SKY/WX    TMP DP  RH WIND       PRES   REMARKS
JACKSON        PTCLDY    29  21  72 SW6       30.15F WCI  23
LONDON         CLEAR     29  21  72 S7        30.19R WCI  22
SOMERSET       CLEAR     28  21  74 S7        30.21F WCI  21
MIDDLESBORO    CLOUDY    22  20  94 CALM      30.24R
MONTICELLO     SUNNY     22  19  89 NW8       30.22S WCI  12
$$





USA.gov is the U.S. government's official web portal to all federal, state and local government web resources and services.